When you browse on this site, cookies collect data to enhance your experience and personalize the content and advertising you see.
Visit our Privacy Policy to learn more. By continuing to use the site, you agree to this use of cookies and data.
  • In Lithuania
  • List of Countries
  • For 7 days
  • Water Temperature
  • Weather Map
  • Weather Widgets
  • user-avatar
    Login

    Hourly Weather Kalgoorlie

    Today, 20 September, Friday

    Time Temperature Precipitation Wind Pressure Humidity
    00:00 +6°C° 0 mm 4 mps 734 mmHg 55%
    01:00 +5°C° 0 mm 4 mps 734 mmHg 58%
    02:00 +5°C° 0 mm 4 mps 734 mmHg 63%
    03:00 +4°C° 0 mm 4 mps 734 mmHg 67%
    04:00 +4°C° 0 mm 4 mps 735 mmHg 70%
    05:00 +4°C° 0 mm 4 mps 735 mmHg 73%
    06:00 +5°C° 0 mm 4 mps 735 mmHg 69%
    07:00 +6°C° 0 mm 5 mps 736 mmHg 64%
    08:00 +7°C° 0 mm 5 mps 736 mmHg 58%
    09:00 +8°C° 0 mm 5 mps 736 mmHg 53%
    10:00 +10°C° 0 mm 5 mps 736 mmHg 47%
    11:00 +12°C° 0 mm 4 mps 736 mmHg 42%
    12:00 +12°C° 0 mm 4 mps 735 mmHg 41%
    13:00 +12°C° 0 mm 4 mps 735 mmHg 41%
    14:00 +13°C° 0 mm 4 mps 734 mmHg 40%
    15:00 +13°C° 0 mm 4 mps 735 mmHg 41%
    16:00 +13°C° 0 mm 4 mps 735 mmHg 42%
    17:00 +13°C° 0 mm 4 mps 735 mmHg 43%
    18:00 +12°C° 0 mm 4 mps 735 mmHg 47%
    19:00 +11°C° 0 mm 4 mps 736 mmHg 51%
    20:00 +10°C° 0 mm 3 mps 737 mmHg 56%
    21:00 +9°C° 0 mm 3 mps 737 mmHg 58%
    22:00 +9°C° 0 mm 3 mps 737 mmHg 60%
    23:00 +7°C° 0 mm 4 mps 737 mmHg 63%

    Tomorrow, 21 September, Saturday

    Time Temperature Precipitation Wind Pressure Humidity
    00:00 +8°C° 0 mm 3 mps 737 mmHg 65%
    01:00 +7°C° 0 mm 3 mps 736 mmHg 67%
    02:00 +5°C° 0 mm 3 mps 736 mmHg 70%
    03:00 +5°C° 0 mm 3 mps 737 mmHg 71%
    04:00 +5°C° 0 mm 3 mps 737 mmHg 73%
    05:00 +4°C° 0 mm 3 mps 737 mmHg 75%
    06:00 +7°C° 0 mm 3 mps 737 mmHg 71%
    07:00 +8°C° 0 mm 3 mps 738 mmHg 66%
    08:00 +9°C° 0 mm 3 mps 738 mmHg 62%
    09:00 +10°C° 0 mm 3 mps 738 mmHg 54%
    10:00 +12°C° 0 mm 3 mps 738 mmHg 47%
    11:00 +13°C° 0 mm 3 mps 738 mmHg 40%
    12:00 +14°C° 0 mm 3 mps 737 mmHg 37%
    13:00 +15°C° 0 mm 4 mps 737 mmHg 35%
    14:00 +17°C° 0 mm 4 mps 736 mmHg 33%
    15:00 +15°C° 0 mm 5 mps 736 mmHg 35%
    16:00 +15°C° 0 mm 5 mps 736 mmHg 37%
    17:00 +14°C° 0 mm 6 mps 736 mmHg 38%
    18:00 +13°C° 0 mm 5 mps 737 mmHg 41%
    19:00 +12°C° 0 mm 4 mps 738 mmHg 44%
    20:00 +11°C° 0 mm 3 mps 738 mmHg 47%
    21:00 +11°C° 0 mm 3 mps 738 mmHg 51%
    22:00 +10°C° 0 mm 3 mps 739 mmHg 54%
    23:00 +10°C° 0 mm 3 mps 739 mmHg 57%

    Day after tomorrow, 22 September, Sunday

    Time Temperature Precipitation Wind Pressure Humidity
    00:00 +9°C° 0 mm 3 mps 739 mmHg 61%
    01:00 +8°C° 0 mm 3 mps 739 mmHg 66%
    02:00 +8°C° 0 mm 3 mps 738 mmHg 70%
    03:00 +7°C° 0 mm 3 mps 739 mmHg 72%
    04:00 +7°C° 0 mm 3 mps 739 mmHg 75%
    05:00 +5°C° 0 mm 3 mps 739 mmHg 78%
    06:00 +7°C° 0 mm 4 mps 739 mmHg 72%
    07:00 +8°C° 0 mm 4 mps 740 mmHg 66%
    08:00 +10°C° 0 mm 4 mps 740 mmHg 60%
    09:00 +11°C° 0 mm 4 mps 740 mmHg 54%
    10:00 +13°C° 0 mm 4 mps 740 mmHg 48%
    11:00 +14°C° 0 mm 3 mps 739 mmHg 41%
    12:00 +16°C° 0 mm 3 mps 739 mmHg 37%
    13:00 +17°C° 0 mm 3 mps 738 mmHg 33%
    14:00 +18°C° 0 mm 3 mps 737 mmHg 30%
    15:00 +18°C° 0 mm 3 mps 738 mmHg 29%
    16:00 +18°C° 0 mm 3 mps 738 mmHg 29%
    17:00 +18°C° 0 mm 3 mps 738 mmHg 29%
    18:00 +17°C° 0 mm 3 mps 738 mmHg 32%
    19:00 +16°C° 0 mm 3 mps 739 mmHg 35%
    20:00 +14°C° 0 mm 3 mps 739 mmHg 38%
    21:00 +13°C° 0 mm 4 mps 739 mmHg 41%
    22:00 +12°C° 0 mm 4 mps 739 mmHg 44%
    23:00 +12°C° 0 mm 4 mps 739 mmHg 47%

    23 September, Monday

    Time Temperature Precipitation Wind Pressure Humidity
    00:00 +11°C° 0 mm 4 mps 739 mmHg 50%
    01:00 +10°C° 0 mm 4 mps 739 mmHg 54%
    02:00 +8°C° 0 mm 4 mps 739 mmHg 57%
    03:00 +8°C° 0 mm 4 mps 739 mmHg 63%
    04:00 +7°C° 0 mm 4 mps 739 mmHg 69%
    05:00 +7°C° 0 mm 4 mps 739 mmHg 76%
    06:00 +8°C° 0 mm 5 mps 739 mmHg 70%
    07:00 +10°C° 0 mm 5 mps 739 mmHg 64%
    08:00 +11°C° 0 mm 6 mps 739 mmHg 59%
    09:00 +14°C° 0 mm 6 mps 739 mmHg 49%
    10:00 +16°C° 0 mm 5 mps 739 mmHg 40%
    11:00 +19°C° 0 mm 5 mps 738 mmHg 31%
    12:00 +20°C° 0 mm 4 mps 737 mmHg 29%
    13:00 +21°C° 0 mm 4 mps 737 mmHg 26%
    14:00 +22°C° 0 mm 4 mps 736 mmHg 23%
    15:00 +22°C° 0 mm 3 mps 736 mmHg 23%
    16:00 +22°C° 0 mm 3 mps 735 mmHg 23%
    17:00 +22°C° 0 mm 3 mps 735 mmHg 23%
    18:00 +21°C° 0 mm 3 mps 735 mmHg 25%
    19:00 +20°C° 0 mm 3 mps 736 mmHg 27%
    20:00 +18°C° 0 mm 4 mps 736 mmHg 30%
    21:00 +18°C° 0 mm 4 mps 736 mmHg 31%
    22:00 +16°C° 0 mm 5 mps 735 mmHg 32%
    23:00 +16°C° 0 mm 5 mps 735 mmHg 34%

    24 September, Tuesday

    Time Temperature Precipitation Wind Pressure Humidity
    00:00 +15°C° 0 mm 5 mps 735 mmHg 35%
    01:00 +15°C° 0 mm 5 mps 734 mmHg 37%
    02:00 +14°C° 0 mm 5 mps 734 mmHg 38%
    03:00 +14°C° 0 mm 5 mps 734 mmHg 40%
    04:00 +13°C° 0 mm 5 mps 734 mmHg 41%
    05:00 +13°C° 0 mm 5 mps 733 mmHg 42%
    06:00 +14°C° 0 mm 6 mps 733 mmHg 39%
    07:00 +16°C° 0 mm 7 mps 733 mmHg 36%
    08:00 +17°C° 0 mm 8 mps 733 mmHg 32%
    09:00 +21°C° 0 mm 8 mps 733 mmHg 29%
    10:00 +24°C° 0 mm 8 mps 733 mmHg 26%
    11:00 +27°C° 0 mm 8 mps 732 mmHg 23%
    12:00 +28°C° 0 mm 8 mps 731 mmHg 21%
    13:00 +29°C° 0 mm 8 mps 731 mmHg 19%
    14:00 +31°C° 0 mm 8 mps 730 mmHg 17%
    15:00 +30°C° 0 mm 7 mps 730 mmHg 18%
    16:00 +29°C° 0 mm 7 mps 729 mmHg 20%
    17:00 +28°C° 0 mm 6 mps 729 mmHg 21%
    18:00 +26°C° 0.1 mm 5 mps 730 mmHg 29%
    19:00 +23°C° 0.1 mm 5 mps 730 mmHg 37%
    20:00 +21°C° 0.1 mm 4 mps 730 mmHg 45%
    21:00 +21°C° 0.1 mm 4 mps 730 mmHg 46%
    22:00 +20°C° 0.1 mm 3 mps 730 mmHg 48%
    23:00 +19°C° 0.1 mm 3 mps 729 mmHg 49%

    25 September, Wednesday

    Time Temperature Precipitation Wind Pressure Humidity
    00:00 +18°C° 0 mm 3 mps 729 mmHg 50%
    01:00 +18°C° 0 mm 3 mps 729 mmHg 50%
    02:00 +17°C° 0 mm 3 mps 729 mmHg 51%
    03:00 +16°C° 0 mm 3 mps 729 mmHg 51%
    04:00 +14°C° 0 mm 3 mps 729 mmHg 52%
    05:00 +13°C° 0 mm 3 mps 729 mmHg 53%
    06:00 +14°C° 0 mm 4 mps 729 mmHg 51%
    07:00 +15°C° 0 mm 4 mps 730 mmHg 48%
    08:00 +17°C° 0 mm 4 mps 730 mmHg 46%
    09:00 +20°C° 0 mm 4 mps 730 mmHg 37%
    10:00 +22°C° 0 mm 4 mps 730 mmHg 28%
    11:00 +25°C° 0 mm 5 mps 730 mmHg 19%
    12:00 +26°C° 0 mm 5 mps 730 mmHg 18%
    13:00 +26°C° 0 mm 6 mps 729 mmHg 17%
    14:00 +27°C° 0 mm 7 mps 728 mmHg 15%
    15:00 +27°C° 0 mm 6 mps 729 mmHg 17%
    16:00 +26°C° 0 mm 6 mps 729 mmHg 19%
    17:00 +24°C° 0 mm 6 mps 729 mmHg 20%
    18:00 +23°C° 0 mm 5 mps 729 mmHg 24%
    19:00 +21°C° 0 mm 5 mps 730 mmHg 29%
    20:00 +20°C° 0 mm 5 mps 730 mmHg 33%
    21:00 +19°C° 0 mm 5 mps 730 mmHg 40%
    22:00 +17°C° 0 mm 5 mps 730 mmHg 48%
    23:00 +16°C° 0 mm 5 mps 730 mmHg 55%
    Show more